Location: St. Louis
(38.6270°N, 90.1994°W)
Time: 07:45:41
(UTC-06:00)

Transit 4A - Pass Details

Date: 03 December 2021
Orbit: 864 x 981 km, 66.8° (Epoch: 19 January)

Event Time Altitude Azimuth Distance (km) Brightness Sun altitude
Rises 19:02:53 0° 205° (SSW) 3,436 11.3 -27.4°
Reaches altitude 10° 19:05:19 10° 205° (SSW) 2,511 10.5 -27.8°
Enters shadow 19:10:48 80° 190° (S) 901 7.7 -28.9°
Maximum altitude 19:11:08 87° 116° (ESE) 891 - -29.0°
Drops below altitude 10° 19:17:08 10° 29° (NNE) 2,590 - -30.1°
Sets 19:19:41 0° 29° (NNE) 3,553 - -30.6°
